Location: Saint-Palais-sur-Mer
(45.6429°N, 1.0859°W)
Time: 19:13:02
(UTC+02:00)

ISS - Pass Details

Date: 25 August 2022
Orbit: 414 x 417 km, 51.6° (Epoch: 27 September)

Event Time Altitude Azimuth Distance (km) Brightness Sun altitude
Exits shadow 06:10:50 14° 205° (SSW) 1,301 -1.7 -11.5°
Maximum altitude 06:13:25 35° 142° (SE) 690 -2.6 -11.1°
Drops below altitude 10° 06:16:32 10° 74° (ENE) 1,501 0.5 -10.6°
Sets 06:18:43 0° 66° (ENE) 2,366 2.4 -10.2°
